Location: Newark
(58.8333°N, 23.5833°E)
Time: 11:56:36
(UTC+00:00)

METEOR M2 - Pass Details

Date: 15 December 2019
Orbit: 819 x 827 km, 98.5° (Epoch: 23 January)

Event Time Altitude Azimuth Distance (km) Brightness Sun altitude
Exits shadow 18:00:37 33° 336° (NNW) 1,348 ? -32.6°
Drops below altitude 10° 18:03:33 10° 341° (NNW) 2,431 ? -33.0°
Sets 18:05:54 0° 343° (NNW) 3,367 ? -33.3°
